Starlink 5708

operational
NORAD ID: 55470 Int'l Des: 2023-015 Owner: SPXS Country: US Constellation: starlink
LEOCIRCULAR

About Starlink 5708

Description loading...

Live Position

Loading 3D Globe...

Upcoming Passes

Altitude History

Altitude vs Time

uPlot chart will show altitude changes over time

Two-Line Element Set

1 55470U 23015X 25259.49791288 .00000578 00000-0 57876-4 0 9990
2 55470 43.0026 192.2748 0001368 276.0264 84.0423 15.02534999144553
Epoch: Sep 16, 2025 • Age: 13 hours

Current Status

Altitude 563.1 km
Velocity 7.59 km/s
Sub-Earth Point 42.60°N, 82.86°W
Launch Date Feb 2, 2023
Age 2.6 years
Type internet

Technical Details

Classification Payload
Mass 305.00 kg
Dry Mass 290.00 kg
Total Mass 305.00 kg
Length 0.20 m
Diameter 2.80 m
Span 9.00 m
Shape Box + pan
Manufacturer SPXS
Bus Type Starlink
Phase Status In Orbit
Owner/State SPXS/US

Large Constellations

Loading constellations...